Waarnemingen

Advertentie
Mijn weer
Rodez, Frankrijk (7552): temperatuur & dauwpunt: 20.06.2019 10:00:00 - 26.06.2019 10:00:00 (CEST)Rodez, Frankrijk (7552): temperatuur 5cm: 20.06.2019 10:00:00 - 26.06.2019 10:00:00 (CEST)Rodez, Frankrijk (7552): windsnelheid & windstoten: 20.06.2019 10:00:00 - 26.06.2019 10:00:00 (CEST)Rodez, Frankrijk (7552): windrichting: 20.06.2019 10:00:00 - 26.06.2019 10:00:00 (CEST)Rodez, Frankrijk (7552): luchtdruk: 20.06.2019 10:00:00 - 26.06.2019 10:00:00 (CEST)Rodez, Frankrijk (7552): zicht: 20.06.2019 10:00:00 - 26.06.2019 10:00:00 (CEST)Rodez, Frankrijk (7552): Zonneschijnduur: 20.06.2019 10:00:00 - 26.06.2019 10:00:00 (CEST)Rodez, Frankrijk (7552): neerslag: 20.06.2019 10:00:00 - 26.06.2019 10:00:00 (CEST)
Datum & Tijd tt [°C] td [°C] tt 5cm [°C] ff [km/u] ff [kn] fx [km/u] fx [kn] dd ppp [hPa] vv [km] sd [min] rr [mm]
26.06.2019 10:00:00 28,5 10,7 29,0 32 18 53 29 OZO 1018,5 13 60 0,0
26.06.2019 09:00:00 26,5 10,2 25,9 33 18 53 29 OZO 1018,4 14 60 0,0
26.06.2019 08:00:00 24,6 10,1 22,6 33 18 56 30 ZO 1018,2 14 60 0,0
26.06.2019 07:00:00 23,1 10,5 21,8 38 20 58 32 OZO 1017,8 8 9 0,0
26.06.2019 06:00:00 23,2 9,6 21,7 36 20 49 26 OZO 1017,6 60 0 0,0
26.06.2019 05:00:00 23,6 8,4 22,1 35 19 54 29 OZO 1017,2 60 0 0,0
26.06.2019 04:00:00 23,6 8,4 22,2 31 17 48 26 OZO 1017,1 60 0 0,0
26.06.2019 03:00:00 24,1 8,5 22,6 32 18 54 29 OZO 1016,8 60 0 0,0
26.06.2019 02:00:00 24,1 9,3 21,0 27 15 49 27 OZO 1017,4 60 0 0,0
26.06.2019 01:00:00 23,1 11,2 20,8 14 8 33 18 O 1018,1 60 0 0,0
26.06.2019 00:00:00 23,8 11,1 21,4 14 8 35 19 O 1018,1 60 0 0,0
25.06.2019 23:00:00 24,2 10,1 21,3 22 12 36 20 OZO 1017,8 60 0 0,0
25.06.2019 22:00:00 25,0 8,5 23,4 15 8 34 18 O 1017,4 18 9 0,0
25.06.2019 21:00:00 26,4 7,9 25,5 22 12 52 28 OZO 1017,1 54 57 0,0
25.06.2019 20:00:00 27,7 8,0 28,0 25 13 45 25 ZO 1016,7 29 58 0,0
25.06.2019 19:00:00 29,9 5,2 31,0 28 15 49 27 OZO 1016,0 20 60 0,0
25.06.2019 18:00:00 31,2 11,1 33,9 31 17 46 25 OZO 1015,5 21 57 0,0
25.06.2019 17:00:00 30,9 13,2 34,2 23 12 50 27 OZO 1015,4 21 60 0,0
25.06.2019 16:00:00 30,5 11,9 33,6 25 13 45 25 ZZO 1015,5 23 36 0,0
25.06.2019 15:00:00 30,4 12,8 34,2 22 12 47 26 ZO 1015,7 25 46 0,0
25.06.2019 14:00:00 29,8 13,1 31,8 25 13 42 23 ZO 1015,8 27 48 0,0
25.06.2019 13:00:00 28,2 10,4 30,8 26 14 48 26 ZO 1016,2 30 27 0,0
25.06.2019 12:00:00 27,3 11,7 29,5 28 15 44 24 ZO 1016,4 32 48 0,0
25.06.2019 11:00:00 25,8 11,5 27,5 23 12 40 21 ZO 1016,7 36 47 0,0
25.06.2019 10:00:00 24,7 10,9 25,6 16 9 27 15 OZO 1017,0 41 53 0,0
25.06.2019 09:00:00 22,5 11,9 21,0 14 8 23 12 O 1017,3 45 60 0,0
25.06.2019 08:00:00 20,2 11,1 17,7 11 6 19 10 O 1017,5 59 31 0,0
25.06.2019 07:00:00 18,9 10,2 15,6 13 7 20 11 OZO 1017,5 59 3 0,0
25.06.2019 06:00:00 19,5 9,1 17,8 13 7 25 14 O 1016,8 60 0 0,0
25.06.2019 05:00:00 20,5 8,8 18,8 14 8 30 16 O 1015,9 60 0 0,0
25.06.2019 04:00:00 20,7 8,7 19,1 16 9 34 18 OZO 1015,7 60 0 0,0
25.06.2019 03:00:00 20,8 9,7 19,1 16 9 36 19 O 1015,4 60 0 0,0
25.06.2019 02:00:00 21,3 10,1 20,0 23 12 48 26 OZO 1014,9 60 0 0,0
25.06.2019 01:00:00 22,2 10,0 21,0 27 14 52 28 OZO 1014,6 60 0 0,0
25.06.2019 00:00:00 22,6 10,7 21,5 29 16 48 26 OZO 1014,3 60 0 0,0
24.06.2019 23:00:00 22,5 10,6 21,2 26 14 43 23 OZO 1014,5 60 0 0,0
24.06.2019 22:00:00 23,3 10,0 21,6 24 13 39 21 OZO 1014,1 60 0 0,0
24.06.2019 21:00:00 24,2 10,8 23,3 28 15 56 31 OZO 1013,8 59 6 0,0
24.06.2019 20:00:00 25,7 11,1 25,2 23 12 50 27 OZO 1013,7 39 25 0,0
24.06.2019 19:00:00 27,2 10,8 27,8 25 13 43 23 ZO 1013,8 52 42 0,0
24.06.2019 18:00:00 27,4 10,6 28,7 25 13 45 24 ZO 1013,6 34 36 0,0
24.06.2019 17:00:00 27,6 12,0 28,8 26 14 43 23 ZO 1013,2 36 4 0,0
24.06.2019 16:00:00 27,3 13,6 29,1 26 14 51 28 ZO 1013,1 31 20 0,0
24.06.2019 15:00:00 28,0 12,8 30,4 25 13 53 29 ZO 1012,8 25 10 0,0
24.06.2019 14:00:00 28,5 11,5 31,9 32 17 49 26 ZO 1012,5 22 56 0,0
24.06.2019 13:00:00 28,2 11,7 31,2 29 16 54 29 ZO 1012,5 24 57 0,0
24.06.2019 12:00:00 27,9 11,9 28,5 29 15 54 29 OZO 1012,4 28 60 0,0
24.06.2019 11:00:00 25,7 11,5 25,1 27 14 40 22 OZO 1012,7 33 23 0,0
24.06.2019 10:00:00 23,5 11,5 23,0 26 14 42 23 OZO 1013,4 33 5 0,0
24.06.2019 09:00:00 22,4 11,8 21,1 18 10 30 16 O 1013,7 50 25 0,0
24.06.2019 08:00:00 21,4 10,8 18,9 19 11 36 19 OZO 1013,9 47 26 0,0
24.06.2019 07:00:00 20,0 10,7 15,7 16 9 26 14 OZO 1014,1 58 0 0,0
24.06.2019 06:00:00 19,1 11,9 15,7 8 4 21 11 O 1013,8 60 0 0,0
24.06.2019 05:00:00 18,8 13,2 16,8 11 6 16 9 O 1014,2 53 0 0,0
24.06.2019 04:00:00 18,5 13,6 17,0 14 8 19 10 ONO 1014,6 48 0 0,0
24.06.2019 03:00:00 19,6 13,3 17,3 10 5 13 7 O 1015,1 58 0 0,0
24.06.2019 02:00:00 19,9 13,8 18,4 8 4 16 9 OZO 1015,3 56 0 0,0
24.06.2019 01:00:00 20,5 13,7 16,6 9 5 23 13 O 1015,3 60 0 0,0
24.06.2019 00:00:00 19,7 13,6 15,0 11 6 16 8 ZO 1015,4 60 0 0,0
23.06.2019 23:00:00 22,1 14,0 18,0 8 4 19 11 OZO 1014,6 60 0 0,0
23.06.2019 22:00:00 22,5 14,3 20,1 15 8 19 11 ZO 1013,6 60 12 0,0
23.06.2019 21:00:00 26,0 14,1 25,0 10 6 16 9 OZO 1012,4 60 44 0,0
23.06.2019 20:00:00 27,3 14,0 27,3 8 5 15 8 O 1012,1 60 48 0,0
23.06.2019 19:00:00 28,3 13,4 30,9 9 5 18 10 OZO 1011,8 46 54 0,0
23.06.2019 18:00:00 28,5 9,7 32,4 11 6 21 11 OZO 1011,7 41 49 0,0
23.06.2019 17:00:00 28,9 9,6 31,5 11 6 19 11 ZZO 1011,9 56 35 0,0
23.06.2019 16:00:00 28,1 8,9 30,9 11 6 21 11 ZZO 1012,0 60 20 0,0
23.06.2019 15:00:00 27,7 10,8 32,1 15 8 24 13 ZZO 1012,1 42 36 0,0
23.06.2019 14:00:00 27,6 11,2 31,2 9 5 19 11 OZO 1012,1 57 33 0,0
23.06.2019 13:00:00 27,0 12,6 31,3 9 5 19 10 ZZO 1012,2 60 49 0,0
23.06.2019 12:00:00 25,7 11,5 28,3 11 6 24 13 ZO 1012,4 38 50 0,0
23.06.2019 11:00:00 24,6 12,5 27,8 14 8 24 13 ZO 1012,6 46 60 0,0
23.06.2019 10:00:00 21,7 13,6 22,4 10 5 20 11 OZO 1013,0 52 60 0,0
23.06.2019 09:00:00 18,9 13,7 20,1 9 5 15 8 O 1013,4 58 60 0,0
23.06.2019 08:00:00 17,1 13,0 12,3 4 2 10 5 O 1013,6 40 60 0,0
23.06.2019 07:00:00 12,9 11,5 7,9 8 4 9 5 ZO 1014,7 32 29 0,0
23.06.2019 06:00:00 12,2 11,6 7,5 4 2 11 6 ZO 1014,8 37 0 0,0
23.06.2019 05:00:00 13,4 11,8 7,5 6 4 10 5 O 1015,1 46 0 0,0
23.06.2019 04:00:00 13,0 11,2 9,5 7 4 11 6 OZO 1015,2 45 0 0,0
23.06.2019 03:00:00 12,8 11,5 8,2 11 6 16 9 ZO 1015,3 43 0 0,0
23.06.2019 02:00:00 14,1 12,5 7,1 5 3 12 7 OZO 1015,4 33 0 0,0
23.06.2019 01:00:00 14,1 13,0 7,0 6 3 9 5 ZO 1015,5 39 0 0,0
23.06.2019 00:00:00 14,1 12,5 9,2 5 3 8 4 ZZO 1016,0 60 0 0,0
22.06.2019 23:00:00 16,6 12,9 10,4 5 3 11 6 NO 1015,5 60 0 0,0
22.06.2019 22:00:00 18,3 12,9 13,3 0 0 7 4 N 1015,1 60 11 0,0
22.06.2019 21:00:00 20,4 13,1 20,8 5 3 9 5 WNW 1014,3 60 60 0,0
22.06.2019 20:00:00 21,7 12,5 23,2 5 3 12 6 WZW 1013,9 59 46 0,0
22.06.2019 19:00:00 22,2 13,0 25,0 8 4 16 9 WZW 1013,8 60 48 0,0
22.06.2019 18:00:00 21,6 13,0 25,6 9 5 19 10 WZW 1014,2 60 45 0,0
22.06.2019 17:00:00 21,6 13,0 26,9 9 5 19 10 WNW 1014,5 30 60 0,0
22.06.2019 16:00:00 21,2 13,1 26,8 9 5 27 15 W 1015,2 58 58 0,0
22.06.2019 15:00:00 20,5 11,9 25,1 6 4 24 13 Z 1015,6 60 58 0,0
22.06.2019 14:00:00 18,9 11,0 24,5 8 5 23 12 NW 1016,7 56 40 0,0
22.06.2019 13:00:00 18,4 12,2 21,9 13 7 24 13 WNW 1017,0 38 28 0,0
22.06.2019 12:00:00 18,3 11,8 20,8 8 4 16 9 ZW 1017,1 57 37 0,0
22.06.2019 11:00:00 17,2 11,9 19,0 5 3 13 7 WZW 1017,2 60 30 0,0
22.06.2019 10:00:00 14,9 11,3 15,0 4 2 11 6 WZW 1018,2 49 1 0,0
22.06.2019 09:00:00 13,4 11,3 13,5 5 3 10 6 W 1018,5 60 0 0,0
22.06.2019 08:00:00 13,0 12,2 12,8 3 2 7 4 Z 1018,5 33 0 0,0
22.06.2019 07:00:00 12,8 12,0 11,9 2 1 6 3 NNW 1018,2 52 0 0,0
22.06.2019 06:00:00 11,8 11,3 7,0 0 0 6 4 N 1018,4 60 0 0,0
22.06.2019 05:00:00 11,0 10,5 7,1 2 1 11 6 Z 1018,8 11 0 0,0
22.06.2019 04:00:00 12,0 11,4 8,7 5 3 10 5 WZW 1019,0 55 0 0,0
22.06.2019 03:00:00 13,0 12,1 12,2 5 3 20 11 WZW 1019,0 45 0 0,0
22.06.2019 02:00:00 13,7 12,8 13,1 12 7 17 9 WZW 1019,3 52 0 0,0
22.06.2019 01:00:00 14,2 12,2 13,8 9 5 14 8 WZW 1019,3 60 0 0,0
22.06.2019 00:00:00 14,2 12,8 13,9 10 5 17 9 WNW 1019,4 60 0 0,0
21.06.2019 23:00:00 14,4 13,1 13,9 9 5 26 14 WZW 1019,3 60 0 0,0
21.06.2019 22:00:00 14,7 12,9 14,5 15 8 29 16 W 1018,7 60 2 0,0
21.06.2019 21:00:00 15,3 13,1 15,3 15 8 29 16 WNW 1018,1 60 0 0,0
21.06.2019 20:00:00 15,5 13,2 15,6 25 13 35 19 W 1017,6 55 11 0,0
21.06.2019 19:00:00 18,1 14,4 19,6 21 12 36 19 W 1016,4 43 30 0,0
21.06.2019 18:00:00 19,1 15,0 20,4 24 13 34 19 W 1015,8 58 14 0,0
21.06.2019 17:00:00 19,8 15,0 20,0 18 10 29 15 W 1015,5 43 30 0,0
21.06.2019 16:00:00 19,3 15,2 19,6 14 8 27 15 W 1015,6 60 3 0,0
21.06.2019 15:00:00 20,4 15,2 22,4 6 3 12 7 Z 1015,6 60 18 0,0
21.06.2019 14:00:00 18,6 14,7 20,7 5 3 16 8 W 1016,3 60 6 0,0
21.06.2019 13:00:00 17,1 14,7 15,6 5 3 17 9 W 1016,8 59 0 0,6
21.06.2019 12:00:00 15,5 15,2 15,5 14 8 21 11 O 1016,4 7 0 1,9
21.06.2019 11:00:00 15,2 14,9 15,1 5 3 16 9 ZZW 1016,9 3,1 0 3,2
21.06.2019 10:00:00 15,5 15,0 15,3 8 4 11 6 ZW 1016,5 10 0 1,0
21.06.2019 09:00:00 14,9 14,6 15,1 4 2 10 5 Z 1016,1 19 0 0,0
21.06.2019 08:00:00 14,6 14,3 14,2 6 3 11 6 ZZO 1015,8 18 0 0,0
21.06.2019 07:00:00 14,1 13,9 12,8 3 2 8 4 NO 1015,6 15 0 0,0
21.06.2019 06:00:00 13,8 13,6 13,0 3 2 6 3 ZZO 1015,4 12 0 0,0
21.06.2019 05:00:00 13,8 13,6 12,7 6 3 8 4 WNW 1015,4 15 0 0,2
21.06.2019 04:00:00 14,2 14,0 11,7 3 2 6 3 NNO 1015,4 17 0 0,0
21.06.2019 03:00:00 14,2 13,9 12,1 3 1 8 5 ZO 1015,9 19 0 0,0
21.06.2019 02:00:00 14,5 14,3 12,6 3 2 11 6 ZZO 1016,5 20 0 0,0
21.06.2019 01:00:00 14,8 14,3 13,5 4 2 11 6 ZO 1016,5 17 0 0,0
21.06.2019 00:00:00 15,2 14,4 14,5 6 3 23 12 WZW 1016,6 14 0 3,4
20.06.2019 23:00:00 16,5 14,0 15,0 14 8 24 13 WZW 1016,5 25 0 0,2
20.06.2019 22:00:00 17,5 12,6 16,9 17 9 29 15 NW 1015,5 60 0 0,0
20.06.2019 21:00:00 18,4 13,5 18,2 16 9 27 15 WNW 1014,7 60 0 0,0
20.06.2019 20:00:00 19,6 13,8 20,2 16 9 29 16 NW 1014,3 49 42 0,0
20.06.2019 19:00:00 21,2 13,9 21,7 17 9 30 16 NW 1013,7 35 38 0,0
20.06.2019 18:00:00 21,9 13,8 23,6 16 9 28 15 NW 1013,5 40 39 0,0
20.06.2019 17:00:00 21,5 13,7 24,7 18 10 31 17 WNW 1013,7 46 26 0,0
20.06.2019 16:00:00 22,0 13,6 26,1 15 8 28 15 NW 1014,1 30 45 0,0
20.06.2019 15:00:00 22,2 13,5 25,1 11 6 27 15 WZW 1014,6 28 41 0,0
20.06.2019 14:00:00 20,5 13,7 24,9 14 8 24 13 WNW 1015,2 39 27 0,0
20.06.2019 13:00:00 20,7 13,2 27,0 12 7 24 13 WNW 1015,4 58 56 0,0
20.06.2019 12:00:00 19,6 14,0 21,0 9 5 21 12 WNW 1015,5 20 35 0,0
20.06.2019 11:00:00 17,8 12,5 19,9 11 6 24 13 NNW 1016,0 45 35 0,0
20.06.2019 10:00:00 17,5 14,2 19,0 14 8 28 15 NW 1015,8 47 60 0,0

tt = temperatuur
td = dauwpunt
tt 5cm = temperatuur 5cm
ff = windsnelheid
fx = windstoten
dd = windrichting
ppp = luchtdruk
vv = zicht
sd = Zonneschijnduur
rr = neerslag

Weerstations in de omgeving